This demonstration page uses our WeatherBlox Daily Observations layout. Learn more.

Left ArrowRight Arrow

39.95233, -75.16379

Hourly Observations for May 24, 2022

Temp ( °F °C ) Dew Point ( °F °C ) Humidity (%) Winds ( mph kmh ) Pressure ( in mb ) Visibility ( mi km ) Precip ( " mm )
12:54 am 00:54 Cloudy with Light Rain 64 17.8 51 10.6 63 63 SE 3 6 30.21 1023 10 16 0.00 0.00
1:54 am 01:54 Cloudy with Drizzle 63 17.2 52 11.1 68 68 Calm 30.20 1023 10 16 0.00 0.00
2:54 am 02:54 Cloudy 64 17.8 51 10.6 63 63 Calm 30.20 1023 10 16 0.00 0.00
3:54 am 03:54 Cloudy with Drizzle 63 17.2 51 10.6 65 65 SE 3 6 30.22 1023 10 16 0.00 0.00
4:54 am 04:54 Cloudy 62 16.7 52 11.1 70 70 SSE 7 11 30.22 1023 10 16 0.00 0.00
5:54 am 05:54 Cloudy 61 16.1 53 11.7 75 75 ESE 8 13 30.20 1023 10 16 0.00 0.00
6:54 am 06:54 Cloudy with Light Rain 62 16.7 53 11.7 73 73 E 7 11 30.23 1024 10 16 0.00 0.00
7:54 am 07:54 Cloudy 63 17.2 54 12.2 73 73 E 6 9 30.24 1024 10 16 0.00 0.00
8:54 am 08:54 Cloudy 64 17.8 52 11.1 65 65 E 14 22 30.25 1024 10 16 0.00 0.00
9:54 am 09:54 Cloudy 66 18.9 50 10 56 56 E 10 17 30.26 1025 10 16 0.00 0.00
10:54 am 10:54 Cloudy 68 20 50 10 53 53 E 13 20 30.27 1025 10 16 0.00 0.00
11:54 am 11:54 Cloudy 68 20 48 8.9 49 49 SE 12 19 30.28 1025 10 16 0.00 0.00
12:54 pm 12:54 Cloudy 69 20.6 48 8.9 47 47 E 12 19 30.28 1025 10 16 0.00 0.00
1:54 pm 13:54 Cloudy 70 21.1 48 8.9 46 46 E 12 19 30.28 1025 10 16 0.00 0.00
2:54 pm 14:54 Cloudy 72 22.2 48 8.9 43 43 ESE 13 20 30.27 1025 10 16 0.00 0.00
3:54 pm 15:54 Cloudy 71 21.7 47 8.3 42 42 E 14 22 30.26 1025 10 16 0.00 0.00
4:54 pm 16:54 Mostly Cloudy 70 21.1 47 8.3 44 44 ENE 7 11 30.25 1025 10 16 0.00 0.00
5:54 pm 17:54 Mostly Cloudy 71 21.7 47 8.3 42 42 E 9 15 30.25 1024 10 16 0.00 0.00
6:54 pm 18:54 Mostly Cloudy 68 20 46 7.8 45 45 E 10 17 30.27 1025 10 16 0.00 0.00
7:54 pm 19:54 Mostly Cloudy 66 18.9 47 8.3 50 50 E 12 19 30.28 1025 10 16 0.00 0.00
8:22 pm 20:22 Mostly Cloudy 65 18.3 46 7.8 51 51 E 9 15 30.28 1025 10 16 0.00 0.00
8:54 pm 20:54 Mostly Cloudy 64 17.8 47 8.3 54 54 ESE 9 15 30.29 1026 10 16 0.00 0.00
9:54 pm 21:54 Mostly Cloudy 63 17.2 44 6.7 50 50 E 10 17 30.30 1026 10 16 0.00 0.00
10:54 pm 22:54 Mostly Cloudy 60 15.6 44 6.7 56 56 ENE 7 11 30.31 1026 10 16 0.00 0.00
11:54 pm 23:54 Mostly Cloudy 60 15.6 46 7.8 60 60 E 9 15 30.32 1027 10 16 0.00 0.00

Powered by AerisWeather